Regional Weather Roundup
Issued by NWS Goodland, KS

Home | Current Version | Previous Version | Graphics & Text | Print | Product List | Glossary On
Versions: 1 2 3 4 5 6 7 8 9 10 11 12 13 14 15 16 17 18 19 20 21 22 23 24 25 26 27 28 29 30 31 32 33 34 35 36 37 38 39 40 41 42 43 44 45 46 47 48 49 50
000
ASUS43 KGLD 251559
RWRGLD

GOODLAND FORECAST AREA HOURLY WEATHER ROUNDUP
NATIONAL WEATHER SERVICE GOODLAND KS
900 AM MST SUN FEB 25 2018

...OFFICIAL OBSERVATIONS...

CITY           SKY/WX    TMP DP  RH WIND       PRES   REMARKS
GOODLAND KS    SUNNY     34  12  40 W17       29.95R
HILL CITY KS   PTSUNNY   31  17  56 W8        30.02R
IMPERIAL NEB   SUNNY     31  16  54 W10       29.94R
MCCOOK NEB     MOSUNNY   34  20  56 SW13      29.97R
AKRON CO       MOSUNNY   29  10  45 W15       29.91R WCI  18
BURLINGTON CO  SUNNY     32  14  47 SW18      29.96R
LIMON CO       SUNNY     30  11  45 NW9       29.92R
$$

...UNOFFICIAL OBSERVATIONS...

CITY           SKY/WX    TMP DP  RH WIND       PRES   REMARKS
NORTON KS      SUNNY     36  12  38 W13G21    29.98
SHARON SPRINGS   N/A     30  16  56 W5G12       N/A
KIT CARSON CO    N/A     28  15  57 MISG        N/A
$$




USA.gov is the U.S. government's official web portal to all federal, state and local government web resources and services.